Regional Weather Roundup
Issued by NWS New Orleans/Baton Rouge, LA

Home | Current Version | Previous Version | Graphics & Text | Print | Product List | Glossary On
Versions: 1 2 3 4 5 6 7 8 9 10 11 12 13 14 15 16 17 18 19 20 21 22 23 24 25 26 27 28 29 30 31 32 33 34 35 36 37 38 39 40 41 42 43 44 45 46 47 48 49 50
695
ASUS44 KLIX 042101
RWRLIX
NEW ORLEANS REGIONAL WEATHER ROUNDUP
NATIONAL WEATHER SERVICE NEW ORLEANS LA
300 PM CST WED MAR 04 2015

NOTE: "FAIR" INDICATES FEW OR NO CLOUDS BELOW 12,000 FEET WITH NO
      SIGNIFICANT WEATHER AND/OR OBSTRUCTIONS TO VISIBILITY.
      SKY/WX - SKY CONDITION AND SIGNIFICANT WEATHER.
      TMP - AIR TEMPERATURE.     DP    - DEWPOINT TEMPERATURE.
      RH  - RELATIVE HUMIDITY.   PRES  - PRESSURE.
      HI  - HEAT INDEX.          WCI   - WIND CHILL INDEX.

*  THESE STATIONS ARE NOT NWS OR FAA STATIONS AND ARE NOT UNDER
   NWS QUALITY CONTROL.

LAZ038-040-048-061>063-065>067-069-042200-
SOUTHEAST LOUISIANA

CITY           SKY/WX    TMP DP  RH WIND       PRES   REMARKS
N.O. AUDUBON     N/A     81  72  74 MISG        N/A
N.O. INTL ARPT PTSUNNY   80  67  64 S17G25    29.91F
N.O. LAKEFRONT MOSUNNY   82  66  58 S22       29.91F
SLIDELL        PTSUNNY   81  69  67 S15       29.90F
BATON ROUGE    PTSUNNY   82  65  56 S24       29.88F
BOOTHVILLE     PTSUNNY   76  70  82 S13       29.94F
BELLE CHASSE   PTSUNNY   81  67  62 S15G26    29.91F
BOGALUSA*        N/A     83  63  50 SW16G24   29.91F
GALLIANO*      MOCLDY    82  70  67 MISG      29.93S
NEW ROADS*     NOT AVBL
GONZALES*      NOT AVBL
HAMMOND*       NOT AVBL
HOUMA*         PTSUNNY   81  70  69 SE14      29.91F
PORT FOURCHON* CLEAR     77  70  78 S7G14     29.96F

$$

MSZ070-080>082-042200-
SOUTHERN MISSISSIPPI

CITY           SKY/WX    TMP DP  RH WIND       PRES   REMARKS
MCCOMB         PTSUNNY   82  62  50 S13G20    29.87F
GULFPORT       CLOUDY    71  68  90 S9        29.94F FOG
BILOXI         PTSUNNY   70  68  93 SW9       29.94S
PASCAGOULA     CLOUDY    74  69  85 S12G20    29.94F
STENNIS ARPT*  PTSUNNY   77  66  69 S13       29.92F

$$

COASTAL OBSERVATIONS
LAKE AND NEARSHORE STATIONS

STATION/POSITION TIME  TEMP    WIND        PRES    WAVE
                       AIR SEA DIR/SP/G            HT/PER
                 (UTC) (F)     (DEG/KT/KT) (MB)    (FT/S)
PASCAGOULA       2023   71     150/  6/ 14 1014.1
WAVELAND YACHT   2023   68 59  170/  8/ 10 1013.9
GRAND ISLE       2023   72 66  160/  5/  9 1014.5
SOUTHWEST PASS   2023   69 46  160/  7/  8 1014.5
NEW CANAL        2023   81     210/ 13/ 20 1013.6
SHELL BEACH      2023   77 62  180/ 13/ 16 1013.7

OFFSHORE STATIONS

STATION/POSITION TIME  TEMP    WIND        PRES    WAVE
                       AIR SEA DIR/SP/G            HT/PER
                 (UTC) (F)     (DEG/KT/KT) (MB)    (FT/S)
64 S DAUPHIN ISL 1959   73 72  160/ 16/ 17 1014.5    4/ 7

$$




USA.gov is the U.S. government's official web portal to all federal, state and local government web resources and services.